sat.trackr.live / text

‹ back to catalog

MISRSAT-2

NORAD 58497 · 2023-187B

PAYLOAD ACTIVE UNKNOWN

§ Identity

Operator
Country
EGYP
Launch date
2023-12-04
Launch site
JSC
Launch vehicle
Mass (kg)
RCS (m²)

External: N2YO · Heavens-Above · Gunter

§ Orbital elements

Epoch: 2026-05-25T04:31:33.914208Z

Period
97.09 min
Inclination
97.9268°
Eccentricity
0.0010191
Mean motion
14.83177068 rev/d
Perigee alt
612.2 km
Apogee alt
626.4 km
Semi-major
6,997.5 km
B*
1.3777e-4
RAAN
227.2986°
Arg perigee
215.0668°
Mean anomaly
144.9875°
Rev number
13,363

§ Raw data

MISRSAT-21 58497U 23187B   26145.18858697  .00001071  00000+0  13777-3 0  99902 58497  97.9268 227.2986 0010191 215.0668 144.9875 14.83177068133631

JSON: /api/v1/satellites/58497 · /tle

For live sub-satellite position, see the globe view (requires WebGL).

§ Visibility from observer

Set your observer location to see the next 7 days of passes ≥ 10°. The values pass through the URL so the page stays shareable.

No JS? Fill the form by hand. The geolocation button needs JavaScript.

§ Radio — SatNOGS DB

ModeDescriptionDownlinkUplink
BPSK S-band telemetry 2.281 GHz

1 transmitter · refreshed weekly from db.satnogs.org